Flag for U.S.A. Weather past 2 weeks in Tuba City, Arizona, U.S.A.

Now
40 °F

Clear.


Feels Like: 40 °F
Forecast: 38 / 71 °F
Wind: No wind

Location: Grand Canyon National Park Airport

Current Time: Apr 18, 2015 at 9:41:08 PM

Latest Report: Apr 18, 2015 at 8:54 PM


Visibility: 10 mi

Pressure: 29.96 "Hg

Humidity: 33%

Dew point: 13 °F

Location of Tuba CityLocation

Historic Weather in Tuba City — Graph

°F

Tuba City temperature yesterday

Maximum temperature yesterday: 51 °F (at 4:54 PM)
Minimum temperature yesterday: 22 °F (at 5:54 AM)
Average temperature yesterday: 35 °F

Past Weeks' High & Low Weather Summary

 TemperatureHumidityPressure
High71 °F (Apr 13, 2:54 PM)96% (Apr 17, 1:54 AM)30.17 "Hg (Apr 17, 1:54 AM)
Low11 °F (Apr 16, 5:54 AM)5% (Apr 6, 1:54 PM)29.72 "Hg (Apr 5, 9:54 PM)
Average42 °F33%29.95 "Hg
* Reported Apr 3 7:54 PM — Apr 18 7:54 PM, Tuba City, Weather by CustomWeather, © 2015

Note: Actual official high and low records may vary slightly from our data, if they occured in-between our weather recording intervals... More about our weather records

Advertising

Tuba City weather history for previous 24 hours

 ConditionsComfort  
Time TempWeatherWind HumidityBarometerVisibility
7:54 PM
Sat, Apr 18
58 °FSunny.6 mph15%29.93 "Hg10 mi
6:54 PM62 °FSunny.5 mph12%29.94 "Hg10 mi
5:54 PM63 °FSunny.7 mph12%29.93 "Hg10 mi
4:54 PM64 °FSunny.12 mph13%29.93 "Hg10 mi
3:54 PM65 °FSunny.13 mph14%29.94 "Hg10 mi
2:54 PM63 °FSunny.N/A15%29.96 "Hg10 mi
1:54 PM63 °FSunny.12 mph16%29.96 "Hg10 mi
12:54 PM60 °FSunny.5 mph19%29.98 "Hg10 mi
11:54 AM59 °FSunny.10 mph22%29.98 "Hg10 mi
10:54 AM56 °FSunny.10 mph24%29.99 "Hg10 mi
9:54 AM53 °FSunny.13 mph32%30.01 "Hg10 mi
8:54 AM45 °FSunny.No wind51%30.04 "Hg10 mi
7:54 AM29 °FSunny.No wind82%30.07 "Hg10 mi
6:54 AM22 °FSunny.No wind92%30.06 "Hg10 mi
5:54 AM25 °FClear.8 mph85%30.03 "Hg10 mi
4:54 AM23 °FClear.No wind88%30.04 "Hg10 mi
3:54 AM25 °FClear.No wind88%30.05 "Hg10 mi
2:54 AM24 °FClear.No wind88%30.07 "Hg10 mi
1:54 AM27 °FClear.No wind85%30.06 "Hg10 mi
12:54 AM27 °FClear.No wind85%30.06 "Hg10 mi
11:54 PM
Fri, Apr 17
31 °FClear.No wind79%30.08 "Hg10 mi
10:54 PM33 °FClear.No wind75%30.06 "Hg10 mi
9:54 PM33 °FClear.No wind75%30.09 "Hg10 mi
Weather by CustomWeather, © 2015

See weather overviewHow to use our weather pages